Find Starlink 6048

NORAD ID: 56459 Int'l Des: 2023-064 Owner: SPXS Country: US Constellation: starlink operational
LEOCIRCULAR

リアルタイム位置

3D地球を読み込み中...

Starlink 6048について

説明を読み込み中...

次回通過

Passes for default location (London). Set your location on the main map for personalized predictions.

高度履歴

Loading altitude history...

軌道要素

1 56459U 23064M 26126.06544738 -.00001927 00000-0 -15370-3 0 9998
2 56459 69.9992 359.6591 0003159 268.1310 91.9488 14.98345397163835
Epoch: May 6, 2026 • Age: 16 hours

現在のステータス

高度 593.6 km
速度 7.56 km/s
衛星直下点 -63.25°S, 171.58°W
打ち上げ日 May 10, 2023
運用期間 2.9 years
タイプ internet

技術仕様

分類 Payload
質量 305.00 kg
乾燥質量 290.00 kg
総質量 305.00 kg
長さ 0.20 m
直径 2.80 m
スパン 9.00 m
形状 Box + pan
製造者 SPXS
バスタイプ Starlink
フェーズステータス In Orbit
所有者/国 SPXS/US

Most Searched